Simultaneous Nadir Overpasses (SNOs) Predictions

Prediction of SNOs between GOES-15 and METOP-C Satellite Orbit:

Table of predicted SNOs for the next 14.0 days since TLE Epoch: 11/14/2023
Index Date Time (GOES-15) GOES-15 Lat,Lon METOP-C Lat,Lon Distance(km) Time Diff (sec)
1 11/14/2023 05:22:06 -0.26, 61.71 -0.20, 61.46 28.47 80
2 11/16/2023 17:20:28 0.25, 61.84 0.24, 61.87 3.31 80
3 11/19/2023 05:21:23 -0.24, 61.76 -0.35, 62.29 60.49 80
4 11/20/2023 17:40:23 0.23, 61.88 -0.70, 57.70 475.25 80
5 11/21/2023 17:17:05 0.23, 61.89 0.44, 62.69 91.93 80
6 11/23/2023 05:35:58 -0.22, 61.82 0.58, 58.13 419.81 80
7 11/24/2023 05:17:59 -0.22, 61.82 -0.50, 63.13 148.12 80
8 11/25/2023 17:36:59 0.21, 61.93 -0.53, 58.54 387.06 80
9 11/26/2023 17:13:39 0.22, 61.96 0.55, 63.54 179.64 80
